SIA634 WSSS-RJTT

Flight info

Callsign SIA634
Flight time N/A
Altitude 35000
Route TOMAN3A TOMAN/N0495F360 L625 AKMON/K0915F360 L625 ANOKI/N0494F360 L625 MEVIN/N0489F370 B462 KAZIK Y59 AZAMA/N0482F390 Y57 SUKBO Y571 BILLY Y21 AKSEL
Aircraft B77W/H-SDE1E2E3FGHIJ4J5M1P2RWXYZ/LB1D1

Departure

Time 2026-05-06 16:38
Airport Singapore Changi Airport (WSSS)

Arrival

Time N/A
Airport Tokyo Haneda International Airport (RJTT)
Time Latitude Longitude Altitude Speed Heading
2026-05-06 16:11 1.35393 103.99040 55 ft 0 kts 203°
2026-05-06 16:25 1.35395 103.99041 55 ft 1 kts 203°
2026-05-06 16:25 1.35409 103.99047 54 ft 2 kts 203°
2026-05-06 16:25 1.35423 103.99053 54 ft 2 kts 203°
2026-05-06 16:25 1.35431 103.99057 54 ft 1 kts 202°
2026-05-06 16:26 1.35446 103.99061 54 ft 2 kts 174°
2026-05-06 16:26 1.35460 103.99057 54 ft 2 kts 147°
2026-05-06 16:26 1.35470 103.99046 55 ft 2 kts 120°
2026-05-06 16:26 1.35473 103.99041 55 ft 1 kts 112°
2026-05-06 16:27 1.35474 103.99040 55 ft 0 kts 112°
2026-05-06 16:28 1.35472 103.99045 55 ft 2 kts 112°
2026-05-06 16:29 1.35455 103.99081 54 ft 9 kts 114°
2026-05-06 16:29 1.35421 103.99158 52 ft 14 kts 113°
2026-05-06 16:29 1.35381 103.99254 49 ft 15 kts 113°
2026-05-06 16:29 1.35339 103.99324 47 ft 9 kts 154°
2026-05-06 16:30 1.35269 103.99315 46 ft 10 kts 202°
2026-05-06 16:30 1.35222 103.99295 45 ft 11 kts 203°
2026-05-06 16:30 1.35132 103.99256 46 ft 10 kts 204°
2026-05-06 16:30 1.35063 103.99225 47 ft 12 kts 205°
2026-05-06 16:31 1.34968 103.99183 46 ft 16 kts 204°
2026-05-06 16:31 1.34850 103.99134 45 ft 19 kts 201°
2026-05-06 16:31 1.34713 103.99076 44 ft 22 kts 203°
2026-05-06 16:31 1.34571 103.99016 42 ft 21 kts 203°
2026-05-06 16:32 1.34438 103.98959 39 ft 20 kts 202°
2026-05-06 16:32 1.34307 103.98904 37 ft 19 kts 203°
2026-05-06 16:32 1.34181 103.98852 34 ft 19 kts 203°
2026-05-06 16:32 1.34065 103.98802 35 ft 17 kts 203°
2026-05-06 16:33 1.33963 103.98758 35 ft 14 kts 203°
2026-05-06 16:33 1.33872 103.98720 35 ft 13 kts 203°
2026-05-06 16:33 1.33784 103.98682 34 ft 13 kts 203°
2026-05-06 16:34 1.33633 103.98619 34 ft 10 kts 203°
2026-05-06 16:34 1.33559 103.98588 35 ft 12 kts 203°
2026-05-06 16:34 1.33482 103.98556 36 ft 12 kts 203°
2026-05-06 16:34 1.33401 103.98521 37 ft 12 kts 203°
2026-05-06 16:35 1.33317 103.98486 38 ft 12 kts 203°
2026-05-06 16:35 1.33234 103.98450 39 ft 13 kts 203°
2026-05-06 16:35 1.33146 103.98413 39 ft 14 kts 202°
2026-05-06 16:35 1.33055 103.98375 39 ft 12 kts 203°
2026-05-06 16:36 1.32979 103.98354 39 ft 10 kts 171°
2026-05-06 16:36 1.32927 103.98405 37 ft 8 kts 112°
2026-05-06 16:36 1.32910 103.98462 37 ft 8 kts 94°
2026-05-06 16:36 1.32923 103.98511 37 ft 7 kts 48°
2026-05-06 16:37 1.32940 103.98524 37 ft 0 kts 25°
2026-05-06 16:37 1.32987 103.98544 37 ft 28 kts 24°
2026-05-06 16:37 1.33398 103.98717 34 ft 98 kts 23°
2026-05-06 16:37 1.34224 103.99067 36 ft 157 kts 22°
2026-05-06 16:38 1.35374 103.99560 194 ft 192 kts 23°
2026-05-06 16:38 1.36621 104.00085 844 ft 197 kts 22°
2026-05-06 16:38 1.37876 104.00605 1735 ft 195 kts 24°
2026-05-06 16:38 1.39118 104.01134 2280 ft 198 kts 24°
2026-05-06 16:39 1.40406 104.01678 2814 ft 201 kts 24°
2026-05-06 16:39 1.41707 104.02228 3290 ft 208 kts 24°
2026-05-06 16:39 1.43098 104.02817 3579 ft 226 kts 24°
2026-05-06 16:39 1.44595 104.03450 3925 ft 242 kts 24°
2026-05-06 16:40 1.46154 104.04224 4272 ft 258 kts 38°
2026-05-06 16:40 1.47347 104.05584 4743 ft 267 kts 63°
2026-05-06 16:40 1.47823 104.07380 5388 ft 270 kts 89°
2026-05-06 16:40 1.47481 104.09209 5986 ft 275 kts 110°
2026-05-06 16:41 1.46704 104.10960 6684 ft 276 kts 114°
2026-05-06 16:41 1.45872 104.12709 7371 ft 278 kts 114°
2026-05-06 16:41 1.45045 104.14465 7958 ft 282 kts 114°
2026-05-06 16:41 1.44212 104.16250 8613 ft 283 kts 114°
2026-05-06 16:42 1.43382 104.18033 9243 ft 285 kts 114°
2026-05-06 16:42 1.42555 104.19819 9833 ft 289 kts 114°
2026-05-06 16:42 1.41700 104.21671 10313 ft 297 kts 114°
2026-05-06 16:42 1.40816 104.23585 10582 ft 313 kts 114°
2026-05-06 16:43 1.39871 104.25629 10872 ft 330 kts 114°
2026-05-06 16:43 1.38885 104.27761 11181 ft 346 kts 114°
2026-05-06 16:43 1.37855 104.29987 11516 ft 361 kts 114°
2026-05-06 16:43 1.36792 104.32287 11858 ft 375 kts 114°
2026-05-06 16:44 1.35684 104.34682 12249 ft 387 kts 113°
2026-05-06 16:44 1.34543 104.37149 12869 ft 393 kts 113°
2026-05-06 16:44 1.33603 104.39703 13523 ft 396 kts 103°
2026-05-06 16:44 1.33144 104.42429 14238 ft 399 kts 93°
2026-05-06 16:45 1.33117 104.45171 14982 ft 402 kts 88°
2026-05-06 16:45 1.33184 104.47987 15771 ft 405 kts 88°
2026-05-06 16:45 1.33255 104.50812 16511 ft 410 kts 88°
2026-05-06 16:45 1.33320 104.53629 17220 ft 414 kts 88°
2026-05-06 16:46 1.33388 104.56508 17903 ft 418 kts 88°
2026-05-06 16:46 1.33457 104.59437 18605 ft 421 kts 88°
2026-05-06 16:46 1.33526 104.62373 19280 ft 425 kts 88°
2026-05-06 16:46 1.33596 104.65344 19929 ft 429 kts 88°
2026-05-06 16:47 1.33668 104.68324 20578 ft 432 kts 89°
2026-05-06 16:47 1.33739 104.71308 21175 ft 436 kts 89°
2026-05-06 16:47 1.33812 104.74360 21752 ft 439 kts 89°
2026-05-06 16:47 1.33885 104.77415 22314 ft 443 kts 89°
2026-05-06 16:48 1.33958 104.80488 22895 ft 446 kts 89°
2026-05-06 16:48 1.34032 104.83598 23425 ft 450 kts 89°
2026-05-06 16:48 1.34107 104.86726 23903 ft 455 kts 89°
2026-05-06 16:48 1.34183 104.89896 24440 ft 459 kts 89°
2026-05-06 16:49 1.34260 104.93092 24942 ft 463 kts 89°
2026-05-06 16:49 1.34337 104.96332 25441 ft 467 kts 89°
2026-05-06 16:49 1.34416 104.99586 25954 ft 470 kts 89°
2026-05-06 16:49 1.34495 105.02839 26440 ft 474 kts 89°
2026-05-06 16:50 1.34574 105.06158 26918 ft 478 kts 89°
2026-05-06 16:50 1.34653 105.09467 27382 ft 482 kts 89°
2026-05-06 16:50 1.34733 105.12791 27848 ft 485 kts 89°
2026-05-06 16:50 1.34787 105.15060 28149 ft 488 kts 89°
2026-05-06 16:51 1.34895 105.19590 28737 ft 493 kts 89°
2026-05-06 16:51 1.34977 105.23006 29220 ft 496 kts 89°
2026-05-06 16:51 1.35059 105.26449 29809 ft 497 kts 88°
2026-05-06 16:51 1.35141 105.29877 30514 ft 494 kts 88°
2026-05-06 16:52 1.35223 105.33310 31245 ft 491 kts 88°
2026-05-06 16:52 1.35305 105.36729 31890 ft 489 kts 88°
2026-05-06 16:52 1.35385 105.40095 32448 ft 489 kts 88°
2026-05-06 16:52 1.35467 105.43515 33063 ft 489 kts 88°
2026-05-06 16:53 1.35546 105.46851 33745 ft 486 kts 88°
2026-05-06 16:53 1.35626 105.50223 34515 ft 482 kts 88°
2026-05-06 16:53 1.35706 105.53566 35273 ft 477 kts 88°
2026-05-06 16:53 1.35784 105.56845 35802 ft 477 kts 88°
2026-05-06 16:54 1.35864 105.60189 35820 ft 479 kts 88°
2026-05-06 16:54 1.36044 105.66795 35819 ft 475 kts 85°
2026-05-06 16:55 1.38906 105.76201 35827 ft 476 kts 60°
2026-05-06 16:55 1.40773 105.78940 35828 ft 476 kts 51°
2026-05-06 16:56 1.45610 105.83405 35837 ft 478 kts 34°
2026-05-06 16:56 1.51435 105.86630 35841 ft 479 kts 28°
2026-05-06 16:57 1.57357 105.89699 35846 ft 478 kts 28°
2026-05-06 16:57 1.63302 105.92777 35848 ft 479 kts 28°
2026-05-06 16:58 1.69232 105.95847 35846 ft 478 kts 28°
2026-05-06 16:58 1.75174 105.98924 35847 ft 479 kts 28°
2026-05-06 16:59 1.81090 106.01987 35847 ft 479 kts 28°
2026-05-06 16:59 1.87020 106.05057 35848 ft 479 kts 28°
2026-05-06 17:00 1.92967 106.08136 35848 ft 479 kts 28°
2026-05-06 17:00 1.98925 106.11217 35847 ft 480 kts 29°
2026-05-06 17:01 2.04835 106.14275 35847 ft 479 kts 29°
2026-05-06 17:01 2.10789 106.17355 35848 ft 480 kts 29°
2026-05-06 17:02 2.16705 106.20416 35847 ft 479 kts 29°
2026-05-06 17:02 2.22690 106.23511 35848 ft 479 kts 29°
2026-05-06 17:03 2.28610 106.26575 35845 ft 479 kts 29°
2026-05-06 17:03 2.34560 106.29654 35839 ft 479 kts 29°
2026-05-06 17:04 2.40498 106.32727 35836 ft 479 kts 29°
2026-05-06 17:04 2.46416 106.35791 35832 ft 479 kts 29°
2026-05-06 17:05 2.52336 106.38855 35824 ft 478 kts 29°
2026-05-06 17:05 2.58280 106.41932 35825 ft 479 kts 29°
2026-05-06 17:06 2.64213 106.45005 35824 ft 479 kts 29°
2026-05-06 17:06 2.70130 106.48071 35824 ft 478 kts 29°
2026-05-06 17:07 2.76054 106.51139 35824 ft 478 kts 29°
2026-05-06 17:07 2.81961 106.54198 35824 ft 477 kts 29°
2026-05-06 17:08 2.87851 106.57248 35823 ft 478 kts 29°
2026-05-06 17:08 2.93790 106.60321 35824 ft 478 kts 29°
2026-05-06 17:09 2.99731 106.63396 35822 ft 478 kts 29°
2026-05-06 17:09 3.05604 106.66436 35830 ft 477 kts 29°
2026-05-06 17:10 3.11520 106.69498 35829 ft 477 kts 29°
2026-05-06 17:10 3.17440 106.72564 35830 ft 477 kts 29°
2026-05-06 17:11 3.23339 106.75619 35830 ft 478 kts 29°
2026-05-06 17:11 3.29273 106.78691 35841 ft 477 kts 29°
2026-05-06 17:12 3.35166 106.81744 35850 ft 478 kts 30°
2026-05-06 17:12 3.41121 106.84829 35850 ft 477 kts 29°
2026-05-06 17:13 3.47018 106.87884 35849 ft 478 kts 29°
2026-05-06 17:13 3.52943 106.90955 35848 ft 478 kts 29°
2026-05-06 17:14 3.58623 106.94352 35853 ft 476 kts 37°
2026-05-06 17:14 3.64037 106.98175 35848 ft 474 kts 37°
2026-05-06 17:15 3.69426 107.01985 35849 ft 476 kts 37°
2026-05-06 17:15 3.74855 107.05822 35846 ft 475 kts 37°
2026-05-06 17:16 3.80281 107.09656 35849 ft 476 kts 37°
2026-05-06 17:16 3.85677 107.13468 35846 ft 474 kts 37°
2026-05-06 17:17 3.91088 107.17292 35847 ft 474 kts 37°
2026-05-06 17:17 3.96477 107.21100 35845 ft 475 kts 37°
2026-05-06 17:18 4.01875 107.24915 35844 ft 475 kts 37°
2026-05-06 17:18 4.07287 107.28741 35837 ft 475 kts 37°
2026-05-06 17:19 4.12724 107.32584 35832 ft 475 kts 37°
2026-05-06 17:19 4.15405 107.34480 35831 ft 475 kts 37°
2026-05-06 17:20 4.23346 107.40096 35832 ft 476 kts 37°
2026-05-06 17:20 4.28762 107.43927 35829 ft 476 kts 37°
2026-05-06 17:21 4.34191 107.47768 35824 ft 477 kts 37°
2026-05-06 17:21 4.39602 107.51596 35824 ft 477 kts 37°
2026-05-06 17:22 4.45051 107.55451 35823 ft 477 kts 37°
2026-05-06 17:22 4.50478 107.59293 35823 ft 477 kts 37°
2026-05-06 17:23 4.55911 107.63140 35824 ft 477 kts 37°
2026-05-06 17:23 4.60445 107.66351 35829 ft 476 kts 37°